Wappingers Falls, NY

9:21 AM EST on December 03, 2016 (GMT -0500)
Dutchess County

Weather History for KPOU - November, 2011

Change the Weather History Date:

Thursday, November 24, 2011

  Actual Average Record
Temperature  
Mean Temperature 40 °F 39 °F  
Max Temperature 53 °F 49 °F 71 °F (2014)
Min Temperature 27 °F 29 °F 3 °F (1989)
Degree Days  
Heating Degree Days 25 26  
Month to date heating degree days 470 537  
Since 1 July heating degree days 884 1113  
Cooling Degree Days 0 0  
Month to date cooling degree days 0 0  
Year to date cooling degree days 908 672  
Moisture  
Dew Point 30 °F    
Average Humidity 83    
Maximum Humidity 92    
Minimum Humidity 50    
Precipitation  
Precipitation 0.00 in 0.12 in 1.13 in (1980)
Month to date precipitation 2.60 2.77  
Year to date precipitation 54.46 42.30  
Sea Level Pressure  
Sea Level Pressure 30.13 in    
Wind  
Wind Speed 0 mph (North)    
Max Wind Speed 7 mph    
Max Gust Speed 8 mph    
Visibility 8 miles    
Events      
T = Trace of Precipitation, MM = Missing Value Source: NWS Daily Summary

Daily Weather History Graph

Daily Weather History Graph

Search for Another Location

Airport or City:

Trip Planner

Search our weather history database for the weather conditions in past years. The results will help you decide how hot, cold, wet, or windy it might be!

Date:

Astronomy

Nov. 24, 2011 Rise Set
Actual Time 6:54 AM EST 4:29 PM EST
Civil Twilight 6:24 AM EST 4:59 PM EST
Nautical Twilight 5:50 AM EST 5:33 PM EST
Astronomical Twilight 5:17 AM EST 6:06 PM EST
Moon 6:09 AM EST (11/24) 3:57 PM EST (11/24)
Length of Visible Light 10h 35m
Length of Day
9h 34m
Waning Crescent, 0% of the Moon is Illuminated
Nov 24
Waning Crescent
Nov 25
New
Dec 2
First Quarter
Dec 10
Full
Dec 17
Last Quarter

Hourly Weather History & Observations

Time (EST) Temp. Dew Point Humidity Pressure Visibility Wind Dir Wind Speed Gust Speed Precip Events Conditions
12:53 AM 37.9 °F 32.0 °F 79% 30.03 in 10.0 mi Calm Calm - N/A   Overcast
1:53 AM 34.0 °F 30.0 °F 85% 30.04 in 10.0 mi Calm Calm - N/A   Clear
2:53 AM 32.0 °F 28.9 °F 88% 30.06 in 10.0 mi Calm Calm - N/A   Clear
3:53 AM 30.0 °F 27.0 °F 88% 30.09 in 5.0 mi Calm Calm - N/A   Clear
4:53 AM 30.0 °F 27.0 °F 88% 30.11 in 3.0 mi Calm Calm - N/A   Clear
5:53 AM 28.4 °F 24.8 °F 86% 30.13 in 7.0 mi Calm Calm - N/A   Clear
6:08 AM 28.4 °F 26.6 °F 93% 30.14 in 2.0 mi Calm Calm - N/A   Clear
6:24 AM 28.4 °F 26.6 °F 93% 30.15 in 1.5 mi Calm Calm - N/A   Clear
6:27 AM 28.4 °F 26.6 °F 93% 30.14 in 3.0 mi Calm Calm - N/A   Clear
6:53 AM 28.0 °F 27.0 °F 96% 30.14 in 7.0 mi Calm Calm - N/A   Clear
7:53 AM 30.2 °F 28.4 °F 93% 30.16 in 6.0 mi Calm Calm - N/A   Clear
8:53 AM 34.0 °F 30.9 °F 89% 30.17 in 9.0 mi Calm Calm - N/A   Clear
9:53 AM 37.9 °F 32.0 °F 79% 30.17 in 10.0 mi Calm Calm - N/A   Partly Cloudy
10:53 AM 39.9 °F 30.9 °F 70% 30.17 in 10.0 mi Calm Calm - N/A   Partly Cloudy
11:53 AM 43.0 °F 32.0 °F 65% 30.14 in 10.0 mi Calm Calm - N/A   Clear
12:53 PM 46.0 °F 32.0 °F 58% 30.13 in 10.0 mi Calm Calm - N/A   Clear
1:53 PM 50.0 °F 33.1 °F 52% 30.11 in 10.0 mi Calm Calm - N/A   Clear
2:53 PM 52.0 °F 34.0 °F 50% 30.11 in 10.0 mi Calm Calm - N/A   Clear
3:53 PM 51.1 °F 35.1 °F 54% 30.11 in 10.0 mi Calm Calm - N/A   Clear
4:53 PM 43.0 °F 36.0 °F 76% 30.12 in 10.0 mi Calm Calm - N/A   Clear
5:53 PM 39.0 °F 35.1 °F 86% 30.13 in 10.0 mi Calm Calm - N/A   Clear
6:53 PM 36.0 °F 33.1 °F 89% 30.14 in 10.0 mi Calm Calm - N/A   Clear
7:53 PM 35.1 °F 32.0 °F 89% 30.14 in 10.0 mi Calm Calm - N/A   Clear
8:53 PM 33.1 °F 30.9 °F 92% 30.14 in 10.0 mi Calm Calm - N/A   Clear
9:53 PM 32.0 °F 30.9 °F 96% 30.14 in 5.0 mi Calm Calm - N/A   Clear
10:53 PM 32.0 °F 30.0 °F 92% 30.14 in 9.0 mi Calm Calm - N/A   Clear
11:20 PM 32.0 °F 30.2 °F 93% 30.15 in 2.0 mi Calm Calm - N/A   Clear
11:30 PM 32.0 °F 30.2 °F 93% 30.15 in 5.0 mi Calm Calm - N/A   Clear
11:53 PM 30.9 °F 28.9 °F 92% 30.14 in 10.0 mi Calm Calm - N/A   Clear